Tracking 19407 objects as of 14-Dec-2018
HD Live streaming from Space Station
objects crossing your sky now

DMSP 5D-3 F18 DEB

Track DMSP 5D-3 F18 DEB now!
10-day predictions


NORAD ID: 36099
Int'l Code: 2009-057E
Perigee: 814.9 km
Apogee: 828.9 km
Inclination: 98.7 °
Period: 101.2 minutes
Semi major axis: 7192 km
RCS: 0.1565 m2 (medium)
Launch date: October 18, 2009
Source: United States (US)
Launch site: AIR FORCE WESTERN TEST RANGE (AFWTR)

Note: This is SATELLITE DEBRIS
aabbcc
Your satellite tracking list
Your tracking list is empty




NASA's NSSDC Master Catalog

Two Line Element Set (TLE):
1 36099U 09057E   18347.74713896 -.00000218  00000-0 -76847-4 0  9995
2 36099  98.7479  50.1680 0009726  92.9862 267.2429 14.23136836468651
Source of the keplerian elements: AFSPC